GW6650 Weather Reports


time (UTC)temp
C
wind
direction
speed
KPH
gust
KPH
rain 1hr
cm
rain 24hr
cm
rain mn
cm
humidity
%
barometer
mb
20260505035508 16 113 0.0 0.0 0.00 0.00 0.00 84 1017.1
20260505035005 16 89 0.0 1.6 0.00 0.00 0.00 84 1016.9
20260505034501 16 147 0.0 0.0 0.00 0.00 0.00 83 1016.9
20260505033958 16 103 0.0 1.6 0.00 0.00 0.00 82 1016.9
20260505033455 16 98 1.6 3.2 0.00 0.00 0.00 83 1017.0
20260505032953 16 81 1.6 1.6 0.00 0.00 0.00 82 1016.8
20260505032450 16 99 0.0 1.6 0.00 0.00 0.00 81 1017.0
20260505031946 17 97 1.6 3.2 0.00 0.00 0.00 81 1017.0
20260505031443 17 74 3.2 3.2 0.00 0.00 0.00 80 1017.1
20260505030940 17 76 0.0 3.2 0.00 0.00 0.00 80 1017.1
20260505030436 17 67 1.6 3.2 0.00 0.00 0.00 78 1017.0
20260505025932 17 93 1.6 3.2 0.00 0.00 0.00 77 1017.1
20260505025429 17 106 0.0 1.6 0.00 0.00 0.00 77 1017.0
20260505024928 17 102 0.0 3.2 0.00 0.00 0.00 76 1017.1
20260505024425 18 125 0.0 3.2 0.00 0.00 0.00 75 1016.9
20260505023922 18 89 1.6 1.6 0.00 0.00 0.00 75 1017.1
20260505023419 18 113 0.0 3.2 0.00 0.00 0.00 75 1017.1
20260505022916 18 80 0.0 1.6 0.00 0.00 0.00 75 1017.1
20260505022414 18 94 1.6 4.8 0.00 0.00 0.00 74 1017.2
20260505021911 18 64 0.0 3.2 0.00 0.00 0.00 74 1017.0
20260505021407 18 69 0.0 3.2 0.00 0.00 0.00 73 1016.9
20260505020903 18 77 1.6 3.2 0.00 0.00 0.00 73 1017.0
20260505020358 18 99 3.2 3.2 0.00 0.00 0.00 73 1017.1
20260505015855 18 61 1.6 3.2 0.00 0.00 0.00 73 1017.0
20260505015353 18 72 1.6 3.2 0.00 0.00 0.00 72 1017.1
20260505014850 18 96 3.2 3.2 0.00 0.00 0.00 71 1017.0
20260505014347 18 103 3.2 4.8 0.00 0.00 0.00 71 1017.1
20260505013844 19 95 0.0 3.2 0.00 0.00 0.00 71 1016.9
20260505013340 19 69 3.2 4.8 0.00 0.00 0.00 71 1017.0
20260505012839 19 89 0.0 3.2 0.00 0.00 0.00 70 1017.0
20260505012337 19 75 0.0 4.8 0.00 0.00 0.00 70 1017.0
20260505011832 19 124 0.0 3.2 0.00 0.00 0.00 70 1016.9
20260505011330 19 96 1.6 4.8 0.00 0.00 0.00 70 1016.8
20260505010825 19 66 0.0 3.2 0.00 0.00 0.00 69 1016.8
20260505010321 20 74 3.2 4.8 0.00 0.00 0.00 69 1016.5
20260505005818 20 65 3.2 4.8 0.00 0.00 0.00 68 1016.8
20260505005315 20 130 1.6 4.8 0.00 0.00 0.00 68 1016.6
20260505004812 20 99 3.2 3.2 0.00 0.00 0.00 68 1016.5
20260505004308 20 95 3.2 4.8 0.00 0.00 0.00 67 1016.6
20260505003806 20 91 3.2 4.8 0.00 0.00 0.00 67 1016.5
20260505003303 20 84 8.0 8.0 0.00 0.00 0.00 66 1016.6
20260505002759 20 75 3.2 4.8 0.00 0.00 0.00 66 1016.5
20260505002256 20 79 3.2 4.8 0.00 0.00 0.00 65 1016.6
20260505001754 21 133 1.6 6.4 0.00 0.00 0.00 65 1016.6
20260505001251 21 99 3.2 9.7 0.00 0.00 0.00 64 1016.6
20260505000748 21 127 0.0 4.8 0.00 0.00 0.00 64 1016.5
20260505000246 21 108 3.2 8.0 0.00 0.00 0.00 63 1016.5
20260504235742 21 66 3.2 4.8 0.00 0.00 0.00 63 1016.3
20260504235239 21 87 3.2 9.7 0.00 0.00 0.00 62 1016.0
20260504234736 21 140 8.0 12.9 0.00 0.00 0.00 61 1016.0
20260504234233 22 103 6.4 6.4 0.00 0.00 0.00 60 1016.0
20260504233730 22 77 6.4 11.3 0.00 0.00 0.00 62 1015.9
20260504233225 22 63 8.0 8.0 0.00 0.00 0.00 60 1015.9
20260504232723 22 110 4.8 6.4 0.00 0.00 0.00 59 1015.9
20260504232220 22 150 0.0 8.0 0.00 0.00 0.00 58 1015.7
20260504231716 22 100 4.8 4.8 0.00 0.00 0.00 58 1015.8
20260504231213 23 79 4.8 8.0 0.00 0.00 0.00 57 1015.6
20260504230709 23 99 4.8 9.7 0.00 0.00 0.00 57 1015.8
20260504230208 23 109 3.2 14.5 0.00 0.00 0.00 57 1015.8
20260504225706 23 72 9.7 14.5 0.00 0.00 0.00 57 1015.8
20260504225201 23 110 4.8 12.9 0.00 0.00 0.00 57 1015.7
20260504224659 23 55 12.9 19.3 0.00 0.00 0.00 58 1015.7
20260504224156 23 88 4.8 8.0 0.00 0.00 0.00 56 1016.0
20260504223653 24 127 6.4 9.7 0.00 0.00 0.00 54 1015.9
20260504223148 23 145 4.8 8.0 0.00 0.00 0.00 55 1015.9
20260504222645 23 74 14.5 19.3 0.00 0.00 0.00 58 1016.0
20260504222142 23 83 3.2 9.7 0.00 0.00 0.00 54 1016.1
20260504221640 23 53 3.2 9.7 0.00 0.00 0.00 58 1016.0
20260504221137 23 69 8.0 12.9 0.00 0.00 0.00 59 1016.1
20260504220633 24 111 6.4 9.7 0.00 0.00 0.00 54 1015.9
20260504220131 23 135 8.0 9.7 0.00 0.00 0.00 56 1016.1
20260504215626 23 64 6.4 17.7 0.00 0.00 0.00 56 1016.1
20260504215124 24 115 9.7 11.3 0.00 0.00 0.00 54 1016.0
20260504214620 24 91 6.4 14.5 0.00 0.00 0.00 57 1015.6
20260504214116 23 80 9.7 12.9 0.00 0.00 0.00 55 1016.1
20260504213613 24 81 12.9 19.3 0.00 0.00 0.00 55 1015.9
20260504213110 24 64 9.7 11.3 0.00 0.00 0.00 55 1015.9
20260504212606 25 74 9.7 12.9 0.00 0.00 0.00 55 1016.1
20260504212103 24 100 3.2 14.5 0.00 0.00 0.00 56 1016.0
20260504211600 24 51 16.1 19.3 0.00 0.00 0.00 56 1015.9
20260504211057 24 75 6.4 14.5 0.00 0.00 0.00 54 1016.0
20260504210555 24 48 17.7 19.3 0.00 0.00 0.00 55 1016.0
20260504210051 25 64 8.0 16.1 0.00 0.00 0.00 52 1016.1
20260504205548 24 86 4.8 20.9 0.00 0.00 0.00 58 1016.2
20260504205046 24 72 4.8 17.7 0.00 0.00 0.00 54 1016.3
20260504204544 24 96 9.7 19.3 0.00 0.00 0.00 55 1016.5
20260504204043 25 55 14.5 14.5 0.00 0.00 0.00 54 1016.3
20260504203540 25 99 6.4 11.3 0.00 0.00 0.00 53 1016.4
20260504203038 25 184 4.8 12.9 0.00 0.00 0.00 55 1016.4
20260504202533 25 86 9.7 12.9 0.00 0.00 0.00 51 1016.3
20260504202030 25 55 3.2 6.4 0.00 0.00 0.00 52 1016.2
20260504201527 25 75 11.3 11.3 0.00 0.00 0.00 52 1016.3
20260504201025 24 100 8.0 17.7 0.00 0.00 0.00 56 1016.3
20260504200521 23 95 4.8 12.9 0.00 0.00 0.00 53 1016.3
20260504200018 23 71 11.3 17.7 0.00 0.00 0.00 55 1016.6
20260504195514 25 51 17.7 19.3 0.00 0.00 0.00 51 1016.6
20260504195011 24 122 3.2 6.4 0.00 0.00 0.00 51 1016.4
20260504194507 24 117 8.0 17.7 0.00 0.00 0.00 52 1016.7
20260504194003 24 73 11.3 20.9 0.00 0.00 0.00 51 1016.6
20260504193500 23 75 9.7 16.1 0.00 0.00 0.00 52 1016.6
20260504192959 24 93 6.4 12.9 0.00 0.00 0.00 51 1016.8
20260504192456 24 87 16.1 17.7 0.00 0.00 0.00 54 1016.8
20260504191955 24 72 17.7 19.3 0.00 0.00 0.00 52 1016.7
20260504191452 24 58 9.7 17.7 0.00 0.00 0.00 49 1016.8
20260504190947 25 80 3.2 11.3 0.00 0.00 0.00 53 1017.0
20260504190443 25 32 12.9 17.7 0.00 0.00 0.00 49 1017.1
20260504185940 24 181 3.2 17.7 0.00 0.00 0.00 52 1017.1
20260504185437 24 75 8.0 14.5 0.00 0.00 0.00 52 1016.9
20260504184933 24 48 11.3 17.7 0.00 0.00 0.00 53 1017.1
20260504184429 24 82 8.0 14.5 0.00 0.00 0.00 48 1017.5
20260504183925 23 114 4.8 17.7 0.00 0.00 0.00 52 1017.6
20260504183423 24 4 11.3 19.3 0.00 0.00 0.00 50 1017.6
20260504182921 24 37 6.4 19.3 0.00 0.00 0.00 49 1017.5
20260504182417 23 47 3.2 8.0 0.00 0.00 0.00 49 1017.4
20260504181914 23 49 24.1 27.4 0.00 0.00 0.00 49 1017.6
20260504181412 24 54 17.7 25.7 0.00 0.00 0.00 49 1017.8
20260504180910 25 77 4.8 6.4 0.00 0.00 0.00 51 1017.5
20260504180408 24 131 3.2 14.5 0.00 0.00 0.00 47 1017.6
20260504175906 24 73 9.7 24.1 0.00 0.00 0.00 47 1017.5
20260504175403 24 78 6.4 14.5 0.00 0.00 0.00 47 1017.7
20260504174901 24 73 4.8 25.7 0.00 0.00 0.00 48 1017.6
20260504174358 25 74 11.3 16.1 0.00 0.00 0.00 44 1017.8
20260504173855 24 66 4.8 16.1 0.00 0.00 0.00 42 1017.8
20260504173351 24 97 4.8 8.0 0.00 0.00 0.00 47 1017.9
20260504172849 23 70 4.8 8.0 0.00 0.00 0.00 43 1017.9
20260504172345 23 44 9.7 17.7 0.00 0.00 0.00 45 1018.0
20260504171841 23 80 9.7 14.5 0.00 0.00 0.00 45 1018.1
20260504171338 23 55 12.9 17.7 0.00 0.00 0.00 43 1018.1
20260504170836 23 323 0.0 11.3 0.00 0.00 0.00 44 1017.9
20260504170332 23 57 11.3 12.9 0.00 0.00 0.00 47 1018.2
20260504160251 23 95 6.4 16.1 0.00 0.00 0.00 43 1018.5
20260504150716 23 8 14.5 14.5 0.00 0.00 0.00 42 1018.2
20260504150213 23 69 6.4 16.1 0.00 0.00 0.00 41 1018.5
20260504141142 23 349 3.2 14.5 0.00 0.00 0.00 43 1018.6
20260504140639 22 5 4.8 12.9 0.00 0.00 0.00 41 1018.7
20260504140134 22 16 9.7 9.7 0.00 0.00 0.00 48 1018.5
20260504130602 21 33 9.7 12.9 0.00 0.00 0.00 58 1018.5
20260504110450 12 141 0.0 3.2 0.00 0.00 0.00 96 1017.7
20260504100413 12 309 0.0 0.0 0.00 0.00 0.00 96 1017.4
20260504081806 13 217 0.0 0.0 0.00 0.00 0.00 95 1017.5
20260504081302 13 217 0.0 0.0 0.00 0.00 0.00 95 1017.5
20260504080759 13 217 0.0 0.0 0.00 0.00 0.00 95 1017.5
20260504080255 13 230 0.0 0.0 0.00 0.00 0.00 95 1017.4
20260504070223 13 113 0.0 0.0 0.00 0.00 0.00 94 1017.2
20260504060143 13 142 0.0 0.0 0.00 0.00 0.00 93 1018.6
20260504050611 14 129 0.0 0.0 0.00 0.00 0.00 90 1018.6
20260504050108 14 123 0.0 0.0 0.00 0.00 0.00 89 1018.6
20260504045605 14 126 0.0 0.0 0.00 0.00 0.00 89 1018.6
20260504045100 15 89 0.0 1.6 0.00 0.00 0.00 88 1018.6
20260504044558 15 142 0.0 1.6 0.00 0.00 0.00 88 1018.6
20260504044055 15 129 0.0 0.0 0.00 0.00 0.00 87 1018.8
20260504043552 15 142 0.0 0.0 0.00 0.00 0.00 87 1018.5
20260504043049 15 150 0.0 0.0 0.00 0.00 0.00 87 1018.8
20260504042546 15 130 0.0 0.0 0.00 0.00 0.00 86 1018.7
20260504042043 15 135 0.0 0.0 0.00 0.00 0.00 86 1018.8
20260504041539 15 135 0.0 0.0 0.00 0.00 0.00 86 1018.6
20260504041035 15 89 0.0 0.0 0.00 0.00 0.00 85 1018.6
20260504040533 16 116 0.0 1.6 0.00 0.00 0.00 84 1018.6
20260504040029 16 93 0.0 0.0 0.00 0.00 0.00 84 1018.5